Regional Weather Roundup
Issued by NWS

Home | Current Version | Previous Version | Text Only | Print | Product List | Glossary Off
Versions: 1 2 3 4 5 6 7 8 9 10 11 12 13 14 15 16 17 18 19 20 21 22 23 24 25 26 27 28 29 30 31 32 33 34 35 36 37 38 39 40 41 42 43 44 45 46 47 48 49 50

509
ASUS43 KMPX 212010
RWRMN
WEATHER ROUNDUP FOR MINNESOTA
NATIONAL WEATHER SERVICE TWIN CITIES/CHANHASSEN MN
300 PM CDT FRI JUL 21 2017


NOTE: "FAIR" INDICATES FEW OR NO CLOUDS BELOW 12,000 FEET WITH NO
SIGNIFICANT WEATHER AND/OR OBSTRUCTIONS TO VISIBILITY. N/A MEANS
CURRENT SKY AND/OR WEATHER CONDITIONS ARE NOT AVAILABLE.

MNZ060>063-068>070-212100-
   Twin Cities Metro

CITY           SKY/WX    TMP DP  RH WIND       PRES   REMARKS
TWIN CITIES    PTSUNNY   80  68  66 S10       29.84F
ST PAUL        CLOUDY    80  71  74 SE12      29.85F
CRYSTAL        CLOUDY    80  68  66 SE10      29.82F
BLAINE         PTSUNNY   79  73  83 S13       29.85F
LAKEVILLE      MOSUNNY   75  70  83 S7        29.87S
EDEN PRAIRIE   MOSUNNY   82  71  69 S10       29.84F
SOUTH ST PAUL  CLOUDY    79  69  73 S10       29.85F
LAKE ELMO      FAIR      79  70  73 S12       29.87F
$$
MNZ001>005-007-008-013>017-022>024-027-028-212100-
   Northwest Minnesota

CITY           SKY/WX    TMP DP  RH WIND       PRES   REMARKS
BEMIDJI        PTSUNNY   83  63  49 S14       29.82S
HALLOCK        PTSUNNY   81  70  69 NE8       29.79R
ROSEAU         CLOUDY    81  68  65 SE3       29.81S
WARROAD        CLOUDY    77  70  78 NE13      29.83R
THIEF RVR FALL CLOUDY    85  72  65 VRB6      29.78F HX  91
CROOKSTON      MOSUNNY   84  72  65 SW8       29.75F
FOSSTON        MOSUNNY   84  70  61 S10       29.78F
DETROIT LAKES  PTSUNNY   82  72  69 SE9       29.82S
MOORHEAD       SUNNY     90  72  55 SE6       29.76F HX  96
PARK RAPIDS    MOSUNNY   87  67  51 S12       29.82F HX  90
MAHNOMEN       FAIR      84  73  67 S8        29.78F HX  90
$$
MNZ006-009>011-018-025>026-212100-
   North Central Minnesota

CITY           SKY/WX    TMP DP  RH WIND       PRES   REMARKS
BAUDETTE       CLOUDY    75  65  70 E13       29.80F
FLAG ISLAND    LGT RAIN  70  63  78 N8        29.87R
INTL FALLS     CLOUDY    76  61  59 E9        29.86F
WASKISH        CLOUDY    79  59  50 E3        29.84R
BIG FORK       SUNNY     84  63  48 S9G16     29.84S
LONGVILLE      SUNNY     82  63  51 SE12G18   29.84F
GRAND RAPIDS   SUNNY     82  64  54 S14       29.86F
CRANE LAKE     MOSUNNY   79  63  57 SE3       29.89F
ORR            SUNNY     82  61  47 SE8       29.84F
COOK           SUNNY     82  63  51 SE9       29.86F
WALKER         FAIR      83  63  51 S9        29.82F
$$
MNZ012-019>021-037-212100-
   Northeast Minnesota

CITY           SKY/WX    TMP DP  RH WIND       PRES   REMARKS
DULUTH         SUNNY     76  66  71 SE12      29.89F
ELY            SUNNY     82  59  44 S10       29.89F
HIBBING        SUNNY     83  61  47 SE12      29.86F
EVELETH        SUNNY     83  55  37 S10       29.89F
DULUTH HARBOR  SUNNY     68  61  77 NE10      29.89F
TWO HARBORS    SUNNY     81  64  57 E8        29.88F
SILVER BAY     SUNNY     75  55  50 E12       29.90F
GRAND MARAIS     N/A     67  56  67 NE5       29.93S
G MARAIS ARPRT MOSUNNY   73  52  46 CALM      29.98S
$$
MNZ029>031-032-039>041-046>048-054>057-064-212100-
   West Central Minnesota

CITY           SKY/WX    TMP DP  RH WIND       PRES   REMARKS
FERGUS FALLS   MOSUNNY   84  73  70 S12       29.79S HX  91
WHEATON        MOSUNNY   84  72  65 SE13      29.80S
MORRIS         MOSUNNY   88  72  58 S13       29.81S HX  94
ALEXANDRIA     MOSUNNY   83  72  69 S12       29.85F
ELBOW LAKE     FAIR      83  74  73 S12       29.82S HAZE
WADENA         PTSUNNY   82  70  65 S12       29.82F
GLENWOOD       SUNNY     84  72  65 S12G20    29.85F
APPLETON       SUNNY     86  70  58 S9G18     29.80F HX  90
BENSON         PTSUNNY   84  72  65 S15       29.84S
ORTONVILLE     MOSUNNY   84  72  65 S9        29.80F
MADISON        SUNNY     88  73  62 S7        29.81F HX  96
WILLMAR        FAIR      82  73  74 SE13      29.85F
$$
MNZ033>034-036-042>043-049>051-058-059-212100-
   Central Minnesota

CITY           SKY/WX    TMP DP  RH WIND       PRES   REMARKS
ST CLOUD       PTSUNNY   80  72  76 S8        29.85S
SAUK CENTRE    FAIR      82  72  71 S12G17    29.85F
PAYNESVILLE    PTSUNNY   82  71  70 S8        29.85F
AITKIN         MOSUNNY   81  66  61 SE10G16   29.84F
PINE RIVER     PTSUNNY   81  70  69 S10       29.87S
BRAINERD       PTSUNNY   82  70  66 S13G20    29.84F
STAPLES        PTSUNNY   82  68  61 S9        29.83F
LONG PRAIRIE   PTSUNNY   81  72  74 SE9G18    29.84F
LITTLE FALLS   MOSUNNY   82  68  61 S8        29.84F
LITCHFIELD     MOSUNNY   82  73  74 SE8       29.86F
BUFFALO        CLOUDY    80  69  67 S8        29.86F
MAPLE LAKE     PTSUNNY   82  74  75 S6        29.85F
HUTCHINSON     PTSUNNY   80  74  81 S6        29.87F
$$
MNZ037-044-045-052-053-212100-
   East Central Minnesota

CITY           SKY/WX    TMP DP  RH WIND       PRES   REMARKS
PRINCETON      PTSUNNY   82  72  69 SE8       29.86R
MORA           CLOUDY    79  63  57 S12       29.88R
CAMBRIDGE      CLOUDY    81  66  61 S12       29.85S
RUSH CITY      MOSUNNY   78  67  69 S7        29.86F
MOOSE LAKE     CLOUDY    81  68  65 S3        29.84F
HINCKLEY       FAIR      81  68  65 S12       29.86S
CLOQUET        SUNNY     79  63  57 SE9       29.87F
MCGREGOR       PTSUNNY   82  64  54 SE9G16    29.86F
$$
MNZ071>073-080-081-089-090-097-098-212100-
   Southwest Minnesota

CITY           SKY/WX    TMP DP  RH WIND       PRES   REMARKS
MONTEVIDEO     CLOUDY    88  73  62 S8        29.83S HX  96
GRANITE FALLS  MOSUNNY   85  73  68 SE10      29.85S HX  92
CANBY          SUNNY     87  71  59 CALM      29.83F HX  93
MARSHALL       PTSUNNY   84  73  70 S14       29.83F HX  91
REDWOOD FALLS  MOSUNNY   83  71  67 S17       29.85S
OLIVIA         CLOUDY    81  72  74 S10       29.85F
PIPESTONE      MOSUNNY   82  72  69 SE6       29.87S
WINDOM         CLOUDY    81  70  69 SE16      29.87S
WORTHINGTON    CLOUDY    79  72  79 SE12      29.88S
JACKSON        PTSUNNY   77  70  78 SE15      29.89S
SLAYTON        CLOUDY    79  70  73 SE12      29.88S
$$
MNZ065>067-074>077-082>085-091>093-212100-
   South Central Minnesota

CITY           SKY/WX    TMP DP  RH WIND       PRES   REMARKS
MANKATO        PTSUNNY   77  70  79 SE14      29.87S
NEW ULM        PTSUNNY   79  70  73 S12G20    29.87R
ST JAMES       CLOUDY    77  70  78 SE15G22   29.88S
FAIRMONT       CLOUDY    77  70  79 SE16      29.88R
GLENCOE        CLOUDY    80  74  80 S9        29.86F
FARIBAULT      CLOUDY    79  72  78 SE8       29.87S
OWATONNA       CLOUDY    77  68  73 SE17      29.87F
WASECA         CLOUDY    77  68  73 SE16      29.88F
ALBERT LEA     CLOUDY    70  70 100 SE13G21   29.89S
$$
MNZ078>079-086>088-094>096-212100-
   Southeast Minnesota

CITY           SKY/WX    TMP DP  RH WIND       PRES   REMARKS
ROCHESTER      CLOUDY    69  67  93 SE8       29.91F
RED WING       PTSUNNY   77  68  73 SE8       29.86F
STANTON        CLOUDY    74  67  78 S6        29.86R
DODGE CENTER   CLOUDY    72  64  78 SE10G17   29.90S
WINONA         DRIZZLE   73  72  94 SE7       29.90F
AUSTIN         CLOUDY    72  66  83 SE12      29.91F
PRESTON        LGT RAIN  69  66  91 SE9       29.90F
$$
ABBREVIATIONS USED IN REMARKS
   TC - TEMPERATURES IN CELSIUS
  WCI - WIND CHILL INDEX
   HX - HEAT INDEX
  VSB - VISIBILITY
$$




USA.gov is the U.S. government's official web portal to all federal, state and local government web resources and services.